Year,Month,Day,Hour,Minute,Value (Times are PST for temperature in C)
2016,02,18,00,00,8.90
2016,02,18,00,01,8.90
2016,02,18,00,02,8.90
2016,02,18,00,03,8.90
2016,02,18,00,04,8.90
2016,02,18,00,05,8.90
2016,02,18,00,06,8.90
2016,02,18,00,07,8.90
2016,02,18,00,08,8.90
2016,02,18,00,09,8.90
2016,02,18,00,10,8.90
2016,02,18,00,11,8.90
2016,02,18,00,12,8.90
2016,02,18,00,13,8.90
2016,02,18,00,14,8.90
2016,02,18,00,15,8.90
2016,02,18,00,16,8.90
2016,02,18,00,17,8.90
2016,02,18,00,18,8.90
2016,02,18,00,19,8.90
2016,02,18,00,20,8.90
2016,02,18,00,21,8.90
2016,02,18,00,22,8.90
2016,02,18,00,23,8.90
2016,02,18,00,24,8.90
2016,02,18,00,25,8.90
2016,02,18,00,26,8.90
2016,02,18,00,27,8.90
2016,02,18,00,28,8.90
2016,02,18,00,29,8.90
2016,02,18,00,30,8.90
2016,02,18,00,31,8.90
2016,02,18,00,32,8.90
2016,02,18,00,33,8.90
2016,02,18,00,34,8.90
2016,02,18,00,35,8.90
2016,02,18,00,36,8.90
2016,02,18,00,37,8.90
2016,02,18,00,38,8.90
2016,02,18,00,39,8.90
2016,02,18,00,40,8.90
2016,02,18,00,41,8.90
2016,02,18,00,42,8.90
2016,02,18,00,43,8.90
2016,02,18,00,44,8.90
2016,02,18,00,45,8.90
2016,02,18,00,46,8.90
2016,02,18,00,47,8.90
2016,02,18,00,48,8.90
2016,02,18,00,49,8.90
2016,02,18,00,50,8.90
2016,02,18,00,51,8.90
2016,02,18,00,52,8.90
2016,02,18,00,53,8.90
2016,02,18,00,54,8.90
2016,02,18,00,55,8.90
2016,02,18,00,56,8.90
2016,02,18,00,57,8.90
2016,02,18,00,58,8.90
2016,02,18,00,59,8.90
2016,02,18,01,00,8.90
2016,02,18,01,01,8.90
2016,02,18,01,02,8.90
2016,02,18,01,03,8.90
2016,02,18,01,04,8.90
2016,02,18,01,05,8.90
2016,02,18,01,06,8.90
2016,02,18,01,07,8.90
2016,02,18,01,08,8.90
2016,02,18,01,09,8.90
2016,02,18,01,10,8.90
2016,02,18,01,11,8.90
2016,02,18,01,12,8.90
2016,02,18,01,13,8.90
2016,02,18,01,14,8.90
2016,02,18,01,15,8.90
2016,02,18,01,16,8.90
2016,02,18,01,17,8.90
2016,02,18,01,18,8.90
2016,02,18,01,19,8.90
2016,02,18,01,20,8.90
2016,02,18,01,21,8.90
2016,02,18,01,22,8.90
2016,02,18,01,23,8.90
2016,02,18,01,24,8.90
2016,02,18,01,25,8.90
2016,02,18,01,26,8.90
2016,02,18,01,27,8.80
2016,02,18,01,28,8.80
2016,02,18,01,29,8.80
2016,02,18,01,30,8.80
2016,02,18,01,31,8.80
2016,02,18,01,32,8.80
2016,02,18,01,33,8.80
2016,02,18,01,34,8.80
2016,02,18,01,35,8.80
2016,02,18,01,36,8.80
2016,02,18,01,37,8.80
2016,02,18,01,38,8.80
2016,02,18,01,39,8.80
2016,02,18,01,40,8.80
2016,02,18,01,41,8.80
2016,02,18,01,42,8.80
2016,02,18,01,43,8.80
2016,02,18,01,44,8.80
2016,02,18,01,45,8.80
2016,02,18,01,46,8.80
2016,02,18,01,47,8.80
2016,02,18,01,48,8.80
2016,02,18,01,49,8.80
2016,02,18,01,50,8.80
2016,02,18,01,51,8.80
2016,02,18,01,52,8.80
2016,02,18,01,53,8.80
2016,02,18,01,54,8.80
2016,02,18,01,55,8.80
2016,02,18,01,56,8.80
2016,02,18,01,57,8.80
2016,02,18,01,58,8.80
2016,02,18,01,59,8.80
2016,02,18,02,00,8.80
2016,02,18,02,01,8.80
2016,02,18,02,02,8.80
2016,02,18,02,03,8.80
2016,02,18,02,04,8.80
2016,02,18,02,05,8.80
2016,02,18,02,06,8.80
2016,02,18,02,07,8.80
2016,02,18,02,08,8.80
2016,02,18,02,09,8.80
2016,02,18,02,10,8.80
2016,02,18,02,11,8.80
2016,02,18,02,12,8.80
2016,02,18,02,13,8.80
2016,02,18,02,14,8.80
2016,02,18,02,15,8.80
2016,02,18,02,16,8.80
2016,02,18,02,17,8.80
2016,02,18,02,18,8.80
2016,02,18,02,19,8.80
2016,02,18,02,20,8.80
2016,02,18,02,21,8.80
2016,02,18,02,22,8.70
2016,02,18,02,23,8.70
2016,02,18,02,24,8.70
2016,02,18,02,25,8.70
2016,02,18,02,26,8.70
2016,02,18,02,27,8.70
2016,02,18,02,28,8.70
2016,02,18,02,29,8.70
2016,02,18,02,30,8.70
2016,02,18,02,31,8.70
2016,02,18,02,32,8.70
2016,02,18,02,33,8.70
2016,02,18,02,34,8.70
2016,02,18,02,35,8.70
2016,02,18,02,36,8.70
2016,02,18,02,37,8.70
2016,02,18,02,38,8.70
2016,02,18,02,39,8.70
2016,02,18,02,40,8.70
2016,02,18,02,41,8.70
2016,02,18,02,42,8.70
2016,02,18,02,43,8.70
2016,02,18,02,44,8.70
2016,02,18,02,45,8.70
2016,02,18,02,46,8.70
2016,02,18,02,47,8.70
2016,02,18,02,48,8.70
2016,02,18,02,49,8.70
2016,02,18,02,50,8.70
2016,02,18,02,51,8.70
2016,02,18,02,52,8.70
2016,02,18,02,53,8.70
2016,02,18,02,54,8.70
2016,02,18,02,55,8.70
2016,02,18,02,56,8.70
2016,02,18,02,57,8.70
2016,02,18,02,58,8.70
2016,02,18,02,59,8.70
2016,02,18,03,00,8.70
2016,02,18,03,01,8.70
2016,02,18,03,02,8.70
2016,02,18,03,03,8.70
2016,02,18,03,04,8.70
2016,02,18,03,05,8.70
2016,02,18,03,06,8.70
2016,02,18,03,07,8.70
2016,02,18,03,08,8.70
2016,02,18,03,09,8.70
2016,02,18,03,10,8.70
2016,02,18,03,11,8.60
2016,02,18,03,12,8.60
2016,02,18,03,13,8.60
2016,02,18,03,14,8.60
2016,02,18,03,15,8.60
2016,02,18,03,16,8.60
2016,02,18,03,17,8.60
2016,02,18,03,18,8.60
2016,02,18,03,19,8.60
2016,02,18,03,20,8.60
2016,02,18,03,21,8.60
2016,02,18,03,22,8.60
2016,02,18,03,23,8.50
2016,02,18,03,24,8.50
2016,02,18,03,25,8.50
2016,02,18,03,26,8.50
2016,02,18,03,27,8.50
2016,02,18,03,28,8.50
2016,02,18,03,29,8.50
2016,02,18,03,30,8.40
2016,02,18,03,31,8.40
2016,02,18,03,32,8.40
2016,02,18,03,33,8.40
2016,02,18,03,34,8.40
2016,02,18,03,35,8.40
2016,02,18,03,36,8.40
2016,02,18,03,37,8.40
2016,02,18,03,38,8.40
2016,02,18,03,39,8.40
2016,02,18,03,40,8.40
2016,02,18,03,41,8.40
2016,02,18,03,42,8.30
2016,02,18,03,43,8.30
2016,02,18,03,44,8.30
2016,02,18,03,45,8.30
2016,02,18,03,46,8.30
2016,02,18,03,47,8.30
2016,02,18,03,48,8.30
2016,02,18,03,49,8.30
2016,02,18,03,50,8.30
2016,02,18,03,51,8.30
2016,02,18,03,52,8.30
2016,02,18,03,53,8.30
2016,02,18,03,54,8.30
2016,02,18,03,55,8.30
2016,02,18,03,56,8.30
2016,02,18,03,57,8.30
2016,02,18,03,58,8.30
2016,02,18,03,59,8.30
2016,02,18,04,00,8.30
2016,02,18,04,01,8.30
2016,02,18,04,02,8.30
2016,02,18,04,03,8.40
2016,02,18,04,04,8.40
2016,02,18,04,05,8.40
2016,02,18,04,06,8.40
2016,02,18,04,07,8.40
2016,02,18,04,08,8.40
2016,02,18,04,09,8.40
2016,02,18,04,10,8.40
2016,02,18,04,11,8.40
2016,02,18,04,12,8.40
2016,02,18,04,13,8.40
2016,02,18,04,14,8.40
2016,02,18,04,15,8.40
2016,02,18,04,16,8.40
2016,02,18,04,17,8.40
2016,02,18,04,18,8.40
2016,02,18,04,19,8.40
2016,02,18,04,20,8.40
2016,02,18,04,21,8.40
2016,02,18,04,22,8.40
2016,02,18,04,23,8.30
2016,02,18,04,24,8.30
2016,02,18,04,25,8.30
2016,02,18,04,26,8.30
2016,02,18,04,27,8.30
2016,02,18,04,28,8.30
2016,02,18,04,29,8.30
2016,02,18,04,30,8.30
2016,02,18,04,31,8.20
2016,02,18,04,32,8.20
2016,02,18,04,33,8.20
2016,02,18,04,34,8.20
2016,02,18,04,35,8.20
2016,02,18,04,36,8.20
2016,02,18,04,37,8.20
2016,02,18,04,38,8.10
2016,02,18,04,39,8.10
2016,02,18,04,40,8.10
2016,02,18,04,41,8.10
2016,02,18,04,42,8.10
2016,02,18,04,43,8.10
2016,02,18,04,44,8.00
2016,02,18,04,45,8.00
2016,02,18,04,46,8.00
2016,02,18,04,47,7.90
2016,02,18,04,48,7.90
2016,02,18,04,49,7.90
2016,02,18,04,50,7.90
2016,02,18,04,51,7.90
2016,02,18,04,52,7.90
2016,02,18,04,53,7.90
2016,02,18,04,54,7.80
2016,02,18,04,55,7.80
2016,02,18,04,56,7.80
2016,02,18,04,57,7.80
2016,02,18,04,58,7.80
2016,02,18,04,59,7.80
2016,02,18,05,00,7.80
2016,02,18,05,01,7.80
2016,02,18,05,02,7.80
2016,02,18,05,03,7.80
2016,02,18,05,04,7.80
2016,02,18,05,05,7.80
2016,02,18,05,06,7.80
2016,02,18,05,07,7.80
2016,02,18,08,49,8.80
2016,02,18,08,50,8.70
2016,02,18,08,51,8.80
2016,02,18,08,52,8.80
2016,02,18,08,53,8.80
2016,02,18,08,54,8.80
2016,02,18,08,55,8.80
2016,02,18,08,56,8.80
2016,02,18,08,57,8.80
2016,02,18,08,58,8.80
2016,02,18,08,59,8.80
2016,02,18,09,00,8.80
2016,02,18,09,01,8.80
2016,02,18,09,02,8.80
2016,02,18,09,03,8.80
2016,02,18,09,04,8.80
2016,02,18,09,05,8.80
2016,02,18,09,06,8.80
2016,02,18,09,07,8.80
2016,02,18,09,08,8.80
2016,02,18,09,09,8.80
2016,02,18,09,10,8.80
2016,02,18,09,11,8.80
2016,02,18,09,12,8.80
2016,02,18,09,13,8.80
2016,02,18,09,14,8.80
2016,02,18,09,15,8.80
2016,02,18,09,16,8.70
2016,02,18,09,17,8.70
2016,02,18,09,18,8.70
2016,02,18,09,19,8.70
2016,02,18,09,20,8.70
2016,02,18,09,21,8.70
2016,02,18,09,22,8.70
2016,02,18,09,23,8.70
2016,02,18,09,24,8.70
2016,02,18,09,25,8.70
2016,02,18,09,26,8.70
2016,02,18,09,27,8.70
2016,02,18,09,28,8.70
2016,02,18,09,29,8.70
2016,02,18,09,30,8.70
2016,02,18,09,31,8.70
2016,02,18,09,32,8.70
2016,02,18,09,33,8.70
2016,02,18,09,34,8.70
2016,02,18,09,35,8.70
2016,02,18,09,36,8.70
2016,02,18,09,37,8.70
2016,02,18,09,38,8.60
2016,02,18,09,39,8.60
2016,02,18,09,40,8.60
2016,02,18,09,41,8.70
2016,02,18,09,42,8.60
2016,02,18,09,43,8.70
2016,02,18,09,44,8.70
2016,02,18,09,45,8.70
2016,02,18,09,46,8.70
2016,02,18,09,47,8.70
2016,02,18,09,48,8.70
2016,02,18,09,49,8.70
2016,02,18,09,50,8.70
2016,02,18,09,51,8.70
2016,02,18,09,52,8.70
2016,02,18,09,53,8.70
2016,02,18,09,54,8.70
2016,02,18,09,55,8.70
2016,02,18,09,56,8.70
2016,02,18,09,57,8.70
2016,02,18,09,58,8.60
2016,02,18,09,59,8.60
2016,02,18,10,00,8.60
2016,02,18,10,01,8.60
2016,02,18,10,02,8.60
2016,02,18,10,03,8.60
2016,02,18,10,04,8.60
2016,02,18,10,05,8.70
2016,02,18,10,06,8.70
2016,02,18,10,07,8.70
2016,02,18,10,08,8.70
2016,02,18,10,09,8.70
2016,02,18,10,10,8.70
2016,02,18,10,11,8.70
2016,02,18,10,12,8.70
2016,02,18,10,13,8.70
2016,02,18,10,14,8.70
2016,02,18,10,15,8.70
2016,02,18,10,16,8.70
2016,02,18,10,17,8.70
2016,02,18,10,18,8.70
2016,02,18,10,19,8.70
2016,02,18,10,20,8.80
2016,02,18,10,21,8.80
2016,02,18,10,22,8.80
2016,02,18,10,23,8.80
2016,02,18,10,24,8.80
2016,02,18,10,25,8.80
2016,02,18,10,26,8.80
2016,02,18,10,27,8.80
2016,02,18,10,28,8.90
2016,02,18,10,29,8.90
2016,02,18,10,30,8.90
2016,02,18,10,31,8.90
2016,02,18,10,32,8.90
2016,02,18,10,33,8.90
2016,02,18,10,34,8.80
2016,02,18,10,35,8.80
2016,02,18,10,36,8.80
2016,02,18,10,37,8.80
2016,02,18,10,38,8.80
2016,02,18,10,39,8.80
2016,02,18,10,40,8.80
2016,02,18,10,41,8.80
2016,02,18,10,42,8.80
2016,02,18,10,43,8.90
2016,02,18,10,44,8.90
2016,02,18,10,45,8.90
2016,02,18,10,46,8.90
2016,02,18,10,47,8.90
2016,02,18,10,48,8.90
2016,02,18,10,49,9.00
2016,02,18,10,50,9.00
2016,02,18,10,51,9.00
2016,02,18,10,52,9.00
2016,02,18,10,53,9.10
2016,02,18,10,54,9.10
2016,02,18,10,55,9.10
2016,02,18,10,56,9.10
2016,02,18,10,57,9.10
2016,02,18,10,58,9.10
2016,02,18,10,59,9.10
2016,02,18,11,00,9.10
2016,02,18,11,01,9.10
2016,02,18,11,02,9.10
2016,02,18,11,03,9.10
2016,02,18,11,04,9.10
2016,02,18,11,05,9.20
2016,02,18,11,06,9.20
2016,02,18,11,07,9.20
2016,02,18,11,08,9.20
2016,02,18,11,09,9.30
2016,02,18,11,10,9.30
2016,02,18,11,11,9.30
2016,02,18,11,12,9.30
2016,02,18,11,13,9.30
2016,02,18,11,14,9.40
2016,02,18,11,15,9.40
2016,02,18,11,16,9.40
2016,02,18,11,17,9.40
2016,02,18,11,18,9.50
2016,02,18,11,19,9.50
2016,02,18,11,20,9.50
2016,02,18,11,21,9.60
2016,02,18,11,22,9.50
2016,02,18,11,23,9.50
2016,02,18,11,24,9.50
2016,02,18,11,25,9.50
2016,02,18,11,26,9.50
2016,02,18,11,27,9.50
2016,02,18,11,28,9.50
2016,02,18,11,29,9.40
2016,02,18,11,30,9.50
2016,02,18,11,31,9.40
2016,02,18,11,32,9.40
2016,02,18,11,33,9.40
2016,02,18,11,34,9.40
2016,02,18,11,35,9.40
2016,02,18,11,36,9.40
2016,02,18,11,37,9.40
2016,02,18,11,38,9.40
2016,02,18,11,39,9.40
2016,02,18,11,40,9.40
2016,02,18,11,41,9.40
2016,02,18,11,42,9.40
2016,02,18,11,43,9.40
2016,02,18,11,44,9.30
2016,02,18,11,45,9.30
2016,02,18,11,46,9.30
2016,02,18,11,47,9.30
2016,02,18,11,48,9.30
2016,02,18,11,49,9.30
2016,02,18,11,50,9.30
2016,02,18,11,51,9.30
2016,02,18,11,52,9.30
2016,02,18,11,53,9.30
2016,02,18,11,54,9.40
2016,02,18,11,55,9.40
2016,02,18,11,56,9.40
2016,02,18,11,57,9.40
2016,02,18,11,58,9.40
2016,02,18,11,59,9.40
2016,02,18,12,00,9.50
2016,02,18,12,01,9.50
2016,02,18,12,02,9.50
2016,02,18,12,03,9.50
2016,02,18,12,04,9.50
2016,02,18,12,05,9.50
2016,02,18,12,06,9.60
2016,02,18,12,07,9.60
2016,02,18,12,08,9.70
2016,02,18,12,09,9.70
2016,02,18,12,10,9.80
2016,02,18,12,11,9.80
2016,02,18,12,12,9.90
2016,02,18,12,13,9.90
2016,02,18,12,14,10.00
2016,02,18,12,15,10.00
2016,02,18,12,16,10.00
2016,02,18,12,17,9.90
2016,02,18,12,18,9.90
2016,02,18,12,19,9.90
2016,02,18,12,20,9.80
2016,02,18,12,21,9.80
2016,02,18,12,22,9.80
2016,02,18,12,23,9.90
2016,02,18,12,24,9.90
2016,02,18,12,25,9.90
2016,02,18,12,26,9.90
2016,02,18,12,27,10.00
2016,02,18,12,28,10.00
2016,02,18,12,29,10.00
2016,02,18,12,30,10.00
2016,02,18,12,31,10.10
2016,02,18,12,32,10.10
2016,02,18,12,33,10.10
2016,02,18,12,34,10.10
2016,02,18,12,35,10.10
2016,02,18,12,36,10.10
2016,02,18,12,37,10.20
2016,02,18,12,38,10.20
2016,02,18,12,39,10.30
2016,02,18,12,40,10.30
2016,02,18,12,41,10.40
2016,02,18,12,42,10.40
2016,02,18,12,43,10.50
2016,02,18,12,44,10.50
2016,02,18,12,45,10.50
2016,02,18,12,46,10.60
2016,02,18,12,47,10.60
2016,02,18,12,48,10.60
2016,02,18,12,49,10.60
2016,02,18,12,50,10.50
2016,02,18,12,51,10.50
2016,02,18,12,52,10.50
2016,02,18,12,53,10.50
2016,02,18,12,54,10.50
2016,02,18,12,55,10.50
2016,02,18,12,56,10.60
2016,02,18,12,57,10.60
2016,02,18,12,58,10.60
2016,02,18,12,59,10.70
2016,02,18,13,00,10.70
2016,02,18,13,01,10.70
2016,02,18,13,02,10.70
2016,02,18,13,03,10.70
2016,02,18,13,04,10.70
2016,02,18,13,05,10.70
2016,02,18,13,06,10.70
2016,02,18,13,07,10.70
2016,02,18,13,08,10.70
2016,02,18,13,09,10.70
2016,02,18,13,10,10.70
2016,02,18,13,11,10.80
2016,02,18,13,12,10.80
2016,02,18,13,13,10.80
2016,02,18,13,14,10.80
2016,02,18,13,15,10.80
2016,02,18,13,16,10.80
2016,02,18,13,17,10.80
2016,02,18,13,18,10.80
2016,02,18,13,19,10.80
2016,02,18,13,20,10.80
2016,02,18,13,21,10.80
2016,02,18,13,22,10.80
2016,02,18,13,23,10.80
2016,02,18,13,24,10.80
2016,02,18,13,25,10.80
2016,02,18,13,26,10.70
2016,02,18,13,27,10.70
2016,02,18,13,28,10.70
2016,02,18,13,29,10.60
2016,02,18,13,30,10.60
2016,02,18,13,31,10.50
2016,02,18,13,32,10.50
2016,02,18,13,33,10.50
2016,02,18,13,34,10.50
2016,02,18,13,35,10.40
2016,02,18,13,36,10.40
2016,02,18,13,37,10.40
2016,02,18,13,38,10.40
2016,02,18,13,39,10.40
2016,02,18,13,40,10.40
2016,02,18,13,41,10.40
2016,02,18,13,42,10.40
2016,02,18,13,43,10.40
2016,02,18,13,44,10.40
2016,02,18,13,45,10.40
2016,02,18,13,46,10.40
2016,02,18,13,47,10.40
2016,02,18,13,48,10.40
2016,02,18,13,49,10.40
2016,02,18,13,50,10.50
2016,02,18,13,51,10.50
2016,02,18,13,52,10.50
2016,02,18,13,53,10.50
2016,02,18,13,54,10.50
2016,02,18,13,55,10.50
2016,02,18,13,56,10.60
2016,02,18,13,57,10.60
2016,02,18,13,58,10.60
2016,02,18,13,59,10.60
2016,02,18,14,00,10.60
2016,02,18,14,01,10.70
2016,02,18,14,02,10.70
2016,02,18,14,03,10.80
2016,02,18,14,04,10.80
2016,02,18,14,05,10.90
2016,02,18,14,06,10.90
2016,02,18,14,07,11.00
2016,02,18,14,08,11.10
2016,02,18,14,09,11.10
2016,02,18,14,10,11.10
2016,02,18,14,11,11.20
2016,02,18,14,12,11.20
2016,02,18,14,13,11.20
2016,02,18,14,14,11.20
2016,02,18,14,15,11.20
2016,02,18,14,16,11.30
2016,02,18,14,17,11.30
2016,02,18,14,18,11.30
2016,02,18,14,19,11.30
2016,02,18,14,20,11.40
2016,02,18,14,21,11.40
2016,02,18,14,22,11.40
2016,02,18,14,23,11.40
2016,02,18,14,24,11.50
2016,02,18,14,25,11.50
2016,02,18,14,26,11.50
2016,02,18,14,27,11.60
2016,02,18,14,28,11.60
2016,02,18,14,29,11.60
2016,02,18,14,30,11.60
2016,02,18,14,31,11.60
2016,02,18,14,32,11.60
2016,02,18,14,33,11.60
2016,02,18,14,34,11.70
2016,02,18,14,35,11.70
2016,02,18,14,36,11.70
2016,02,18,14,37,11.70
2016,02,18,14,38,11.80
2016,02,18,14,39,11.80
2016,02,18,14,40,11.80
2016,02,18,14,41,11.80
2016,02,18,14,42,11.80
2016,02,18,14,43,11.80
2016,02,18,14,44,11.80
2016,02,18,14,45,11.80
2016,02,18,14,46,11.80
2016,02,18,14,47,11.70
2016,02,18,14,48,11.70
2016,02,18,14,49,11.70
2016,02,18,14,50,11.70
2016,02,18,14,51,11.70
2016,02,18,14,52,11.70
2016,02,18,14,53,11.70
2016,02,18,14,54,11.70
2016,02,18,14,55,11.70
2016,02,18,14,56,11.70
2016,02,18,14,57,11.70
2016,02,18,14,58,11.70
2016,02,18,14,59,11.80
2016,02,18,15,00,11.80
2016,02,18,15,01,11.80
2016,02,18,15,02,11.80
2016,02,18,15,03,11.80
2016,02,18,15,04,11.80
2016,02,18,15,05,11.80
2016,02,18,15,06,11.80
2016,02,18,15,07,11.90
2016,02,18,15,08,11.90
2016,02,18,15,09,11.90
2016,02,18,15,10,11.90
2016,02,18,15,11,12.00
2016,02,18,15,12,12.00
2016,02,18,15,13,11.90
2016,02,18,15,14,11.90
2016,02,18,15,15,11.90
2016,02,18,15,16,11.90
2016,02,18,15,17,11.90
2016,02,18,15,18,11.90
2016,02,18,15,19,11.90
2016,02,18,15,20,11.90
2016,02,18,15,21,11.90
2016,02,18,15,22,11.90
2016,02,18,15,23,11.90
2016,02,18,15,24,11.90
2016,02,18,15,25,11.90
2016,02,18,15,26,11.90
2016,02,18,15,27,11.90
2016,02,18,15,28,11.80
2016,02,18,15,29,11.80
2016,02,18,15,30,11.80
2016,02,18,15,31,11.80
2016,02,18,15,32,11.80
2016,02,18,15,33,11.80
2016,02,18,15,34,11.90
2016,02,18,15,35,11.90
2016,02,18,15,36,11.90
2016,02,18,15,37,11.90
2016,02,18,15,38,11.90
2016,02,18,15,39,11.90
2016,02,18,15,40,11.90
2016,02,18,15,41,12.00
2016,02,18,15,42,12.00
2016,02,18,15,43,12.00
2016,02,18,15,44,12.00
2016,02,18,15,45,12.10
2016,02,18,15,46,12.10
2016,02,18,15,47,12.10
2016,02,18,15,48,12.10
2016,02,18,15,49,12.10
2016,02,18,15,50,12.10
2016,02,18,15,51,12.10
2016,02,18,15,52,12.10
2016,02,18,15,53,12.00
2016,02,18,15,54,12.00
2016,02,18,15,55,11.90
2016,02,18,15,56,11.90
2016,02,18,15,57,11.90
2016,02,18,15,58,11.80
2016,02,18,15,59,11.80
2016,02,18,16,00,11.80
2016,02,18,16,01,11.80
2016,02,18,16,02,11.70
2016,02,18,16,03,11.70
2016,02,18,16,04,11.70
2016,02,18,16,05,11.70
2016,02,18,16,06,11.70
2016,02,18,16,07,11.80
2016,02,18,16,08,11.70
2016,02,18,16,09,11.80
2016,02,18,16,10,11.80
2016,02,18,16,11,11.80
2016,02,18,16,12,11.80
2016,02,18,16,13,11.80
2016,02,18,16,14,11.80
2016,02,18,16,15,11.80
2016,02,18,16,16,11.80
2016,02,18,16,17,11.70
2016,02,18,16,18,11.70
2016,02,18,16,19,11.70
2016,02,18,16,20,11.70
2016,02,18,16,21,11.70
2016,02,18,16,22,11.70
2016,02,18,16,23,11.60
2016,02,18,16,24,11.60
2016,02,18,16,25,11.50
2016,02,18,16,26,11.50
2016,02,18,16,27,11.40
2016,02,18,16,28,11.40
2016,02,18,16,29,11.30
2016,02,18,16,30,11.30
2016,02,18,16,31,11.30
2016,02,18,16,32,11.30
2016,02,18,16,33,11.20
2016,02,18,16,34,11.20
2016,02,18,16,35,11.20
2016,02,18,16,36,11.20
2016,02,18,16,37,11.10
2016,02,18,16,38,11.10
2016,02,18,16,39,11.10
2016,02,18,16,40,11.00
2016,02,18,16,41,11.00
2016,02,18,16,42,10.90
2016,02,18,16,43,10.90
2016,02,18,16,44,10.90
2016,02,18,16,45,10.80
2016,02,18,16,46,10.80
2016,02,18,16,47,10.80
2016,02,18,16,48,10.70
2016,02,18,16,49,10.70
2016,02,18,16,50,10.70
2016,02,18,16,51,10.60
2016,02,18,16,52,10.60
2016,02,18,16,53,10.50
2016,02,18,16,54,10.50
2016,02,18,16,55,10.50
2016,02,18,16,56,10.40
2016,02,18,16,57,10.40
2016,02,18,16,58,10.40
2016,02,18,16,59,10.40
2016,02,18,17,00,10.30
2016,02,18,17,01,10.30
2016,02,18,17,02,10.30
2016,02,18,17,03,10.30
2016,02,18,17,04,10.30
2016,02,18,17,05,10.20
2016,02,18,17,06,10.20
2016,02,18,17,07,10.20
2016,02,18,17,08,10.20
2016,02,18,17,09,10.20
2016,02,18,17,10,10.10
2016,02,18,17,11,10.10
2016,02,18,17,12,10.10
2016,02,18,17,13,10.10
2016,02,18,17,14,10.10
2016,02,18,17,15,10.10
2016,02,18,17,16,10.00
2016,02,18,17,17,10.00
2016,02,18,17,18,10.00
2016,02,18,17,19,10.00
2016,02,18,17,20,10.00
2016,02,18,17,21,9.90
2016,02,18,17,22,9.90
2016,02,18,17,23,9.90
2016,02,18,17,24,9.90
2016,02,18,17,25,9.90
2016,02,18,17,26,9.90
2016,02,18,17,27,9.80
2016,02,18,17,28,9.80
2016,02,18,17,29,9.80
2016,02,18,17,30,9.80
2016,02,18,17,31,9.80
2016,02,18,17,32,9.80
2016,02,18,17,33,9.80
2016,02,18,17,34,9.80
2016,02,18,17,35,9.80
2016,02,18,17,36,9.80
2016,02,18,17,37,9.70
2016,02,18,17,38,9.70
2016,02,18,17,39,9.70
2016,02,18,17,40,9.70
2016,02,18,17,41,9.70
2016,02,18,17,42,9.70
2016,02,18,17,43,9.70
2016,02,18,17,44,9.70
2016,02,18,17,45,9.60
2016,02,18,17,46,9.60
2016,02,18,17,47,9.60
2016,02,18,17,48,9.60
2016,02,18,17,49,9.60
2016,02,18,17,50,9.60
2016,02,18,17,51,9.60
2016,02,18,17,52,9.60
2016,02,18,17,53,9.60
2016,02,18,17,54,9.60
2016,02,18,17,55,9.60
2016,02,18,17,56,9.50
2016,02,18,17,57,9.50
2016,02,18,17,58,9.50
2016,02,18,17,59,9.50
2016,02,18,18,00,9.50
2016,02,18,18,01,9.40
2016,02,18,18,02,9.40
2016,02,18,18,03,9.40
2016,02,18,18,04,9.40
2016,02,18,18,05,9.40
2016,02,18,18,06,9.40
2016,02,18,18,07,9.40
2016,02,18,18,08,9.40
2016,02,18,18,09,9.30
2016,02,18,18,10,9.30
2016,02,18,18,11,9.30
2016,02,18,18,12,9.30
2016,02,18,18,13,9.30
2016,02,18,18,14,9.30
2016,02,18,18,15,9.30
2016,02,18,18,16,9.30
2016,02,18,18,17,9.30
2016,02,18,18,18,9.30
2016,02,18,18,19,9.30
2016,02,18,18,20,9.20
2016,02,18,18,21,9.20
2016,02,18,18,22,9.20
2016,02,18,18,23,9.20
2016,02,18,18,24,9.20
2016,02,18,18,25,9.20
2016,02,18,18,26,9.10
2016,02,18,18,27,9.10
2016,02,18,18,28,9.10
2016,02,18,18,29,9.10
2016,02,18,18,30,9.10
2016,02,18,18,31,9.10
2016,02,18,18,32,9.00
2016,02,18,18,33,9.00
2016,02,18,18,34,9.00
2016,02,18,18,35,9.00
2016,02,18,18,36,9.00
2016,02,18,18,37,9.00
2016,02,18,18,38,9.00
2016,02,18,18,39,9.00
2016,02,18,18,40,9.00
2016,02,18,18,41,8.90
2016,02,18,18,42,8.90
2016,02,18,18,43,8.90
2016,02,18,18,44,8.90
2016,02,18,18,45,8.90
2016,02,18,18,46,8.90
2016,02,18,18,47,8.90
2016,02,18,18,48,8.90
2016,02,18,18,49,8.90
2016,02,18,18,50,8.90
2016,02,18,18,51,8.90
2016,02,18,18,52,8.90
2016,02,18,18,53,8.90
2016,02,18,18,54,8.90
2016,02,18,18,55,8.90
2016,02,18,18,56,8.80
2016,02,18,18,57,8.80
2016,02,18,18,58,8.80
2016,02,18,18,59,8.80
2016,02,18,19,00,8.80
2016,02,18,19,01,8.80
2016,02,18,19,02,8.80
2016,02,18,19,03,8.80
2016,02,18,19,04,8.80
2016,02,18,19,05,8.80
2016,02,18,19,06,8.80
2016,02,18,19,07,8.80
2016,02,18,19,08,8.80
2016,02,18,19,09,8.80
2016,02,18,19,10,8.80
2016,02,18,19,11,8.80
2016,02,18,19,12,8.80
2016,02,18,19,13,8.80
2016,02,18,19,14,8.80
2016,02,18,19,15,8.80
2016,02,18,19,16,8.80
2016,02,18,19,17,8.80
2016,02,18,19,18,8.80
2016,02,18,19,19,8.80
2016,02,18,19,20,8.80
2016,02,18,19,21,8.80
2016,02,18,19,22,8.80
2016,02,18,19,23,8.80
2016,02,18,19,24,8.80
2016,02,18,19,25,8.80
2016,02,18,19,26,8.80
2016,02,18,19,27,8.80
2016,02,18,19,28,8.80
2016,02,18,19,29,8.80
2016,02,18,19,30,8.80
2016,02,18,19,31,8.80
2016,02,18,19,32,8.70
2016,02,18,19,33,8.70
2016,02,18,19,34,8.70
2016,02,18,19,35,8.70
2016,02,18,19,36,8.70
2016,02,18,19,37,8.70
2016,02,18,19,38,8.70
2016,02,18,19,39,8.70
2016,02,18,19,40,8.70
2016,02,18,19,41,8.70
2016,02,18,19,42,8.70
2016,02,18,19,43,8.70
2016,02,18,19,44,8.70
2016,02,18,19,45,8.70
2016,02,18,19,46,8.70
2016,02,18,19,47,8.70
2016,02,18,19,48,8.70
2016,02,18,19,49,8.70
2016,02,18,19,50,8.70
2016,02,18,19,51,8.70
2016,02,18,19,52,8.70
2016,02,18,19,53,8.70
2016,02,18,19,54,8.70
2016,02,18,19,55,8.70
2016,02,18,19,56,8.70
2016,02,18,19,57,8.70
2016,02,18,19,58,8.70
2016,02,18,19,59,8.70
2016,02,18,20,00,8.70
2016,02,18,20,01,8.70
2016,02,18,20,02,8.70
2016,02,18,20,03,8.70
2016,02,18,20,04,8.70
2016,02,18,20,05,8.70
2016,02,18,20,06,8.70
2016,02,18,20,07,8.70
2016,02,18,20,08,8.60
2016,02,18,20,09,8.60
2016,02,18,20,10,8.60
2016,02,18,20,11,8.60
2016,02,18,20,12,8.60
2016,02,18,20,13,8.60
2016,02,18,20,14,8.60
2016,02,18,20,15,8.60
2016,02,18,20,16,8.60
2016,02,18,20,17,8.60
2016,02,18,20,18,8.50
2016,02,18,20,19,8.50
2016,02,18,20,20,8.50
2016,02,18,20,21,8.50
2016,02,18,20,22,8.50
2016,02,18,20,23,8.50
2016,02,18,20,24,8.50
2016,02,18,20,25,8.50
2016,02,18,20,26,8.50
2016,02,18,20,27,8.50
2016,02,18,20,28,8.50
2016,02,18,20,29,8.50
2016,02,18,20,30,8.50
2016,02,18,20,31,8.50
2016,02,18,20,32,8.50
2016,02,18,20,33,8.50
2016,02,18,20,34,8.50
2016,02,18,20,35,8.50
2016,02,18,20,36,8.50
2016,02,18,20,37,8.50
2016,02,18,20,38,8.50
2016,02,18,20,39,8.50
2016,02,18,20,40,8.50
2016,02,18,20,41,8.50
2016,02,18,20,42,8.50
2016,02,18,20,43,8.50
2016,02,18,20,44,8.50
2016,02,18,20,45,8.50
2016,02,18,20,46,8.50
2016,02,18,20,47,8.50
2016,02,18,20,48,8.50
2016,02,18,20,49,8.50
2016,02,18,20,50,8.50
2016,02,18,20,51,8.50
2016,02,18,20,52,8.50
2016,02,18,20,53,8.50
2016,02,18,20,54,8.50
2016,02,18,20,55,8.50
2016,02,18,20,56,8.50
2016,02,18,20,57,8.50
2016,02,18,20,58,8.50
2016,02,18,20,59,8.50
2016,02,18,21,00,8.50
2016,02,18,21,01,8.50
2016,02,18,21,02,8.50
2016,02,18,21,03,8.50
2016,02,18,21,04,8.50
2016,02,18,21,05,8.50
2016,02,18,21,06,8.50
2016,02,18,21,07,8.50
2016,02,18,21,08,8.50
2016,02,18,21,09,8.50
2016,02,18,21,10,8.60
2016,02,18,21,11,8.60
2016,02,18,21,12,8.60
2016,02,18,21,13,8.60
2016,02,18,21,14,8.60
2016,02,18,21,15,8.60
2016,02,18,21,16,8.60
2016,02,18,21,17,8.60
2016,02,18,21,18,8.60
2016,02,18,21,19,8.60
2016,02,18,21,20,8.60
2016,02,18,21,21,8.60
2016,02,18,21,22,8.60
2016,02,18,21,23,8.60
2016,02,18,21,24,8.60
2016,02,18,21,25,8.60
2016,02,18,21,26,8.60
2016,02,18,21,27,8.60
2016,02,18,21,28,8.60
2016,02,18,21,29,8.60
2016,02,18,21,30,8.60
2016,02,18,21,31,8.70
2016,02,18,21,32,8.70
2016,02,18,21,33,8.70
2016,02,18,21,34,8.70